Time,TemperatureF,DewpointF,PressureIn,WindDirection,WindDirectionDegrees,WindSpeedMPH,WindSpeedGustMPH,Humidity,HourlyPrecipIn,Conditions,Clouds,dailyrainin,SoftwareType,DateUTC
2013-06-02 00:02:00,69.0,-99.9,29.80,NNW,338,0.0,1.0,91,0.00,,,0.45,,2013-06-02 04:02:00,
2013-06-02 00:13:00,69.0,66.0,29.80,NNW,338,0.0,1.0,91,0.00,,,0.45,,2013-06-02 04:13:00,
2013-06-02 00:23:00,69.0,67.0,29.80,NNW,338,0.0,1.0,92,0.00,,,0.45,,2013-06-02 04:23:00,
2013-06-02 00:33:00,69.0,67.0,29.80,NNW,338,0.0,0.0,92,0.00,,,0.45,,2013-06-02 04:33:00,
2013-06-02 00:42:00,69.0,67.0,29.80,NNW,338,0.0,0.0,92,0.00,,,0.45,,2013-06-02 04:42:00,
2013-06-02 00:53:00,69.0,67.0,29.79,NNW,338,0.0,0.0,92,0.00,,,0.45,,2013-06-02 04:53:00,
2013-06-02 01:02:00,69.0,67.0,29.78,NNW,338,0.0,0.0,92,0.00,,,0.45,,2013-06-02 05:02:00,
2013-06-02 01:12:00,69.0,67.0,29.78,NNW,338,0.0,0.0,92,0.00,,,0.45,,2013-06-02 05:12:00,
2013-06-02 01:22:00,69.0,67.0,29.78,NNW,338,0.0,1.0,92,0.00,,,0.45,,2013-06-02 05:22:00,
2013-06-02 01:32:00,69.0,67.0,29.77,NNW,338,0.0,1.0,92,0.00,,,0.45,,2013-06-02 05:32:00,
2013-06-02 01:42:00,69.0,67.0,29.77,NNW,338,0.0,1.0,92,0.00,,,0.45,,2013-06-02 05:42:00,
2013-06-02 01:52:00,69.0,67.0,29.76,NNW,338,0.0,1.0,92,0.00,,,0.45,,2013-06-02 05:52:00,
2013-06-02 02:01:00,69.0,67.0,29.77,NNW,338,0.0,0.0,92,0.00,,,0.45,,2013-06-02 06:01:00,
2013-06-02 02:12:00,69.0,67.0,29.78,North,355,0.0,4.0,92,0.12,,,0.57,,2013-06-02 06:12:00,
2013-06-02 02:21:00,69.0,67.0,29.78,North,355,0.0,4.0,92,0.12,,,0.57,,2013-06-02 06:21:00,
2013-06-02 02:32:00,69.0,67.0,29.76,North,355,0.0,0.0,92,0.12,,,0.57,,2013-06-02 06:32:00,
2013-06-02 02:42:00,69.0,67.0,29.76,North,355,0.0,0.0,92,0.12,,,0.57,,2013-06-02 06:42:00,
2013-06-02 02:52:00,68.0,66.0,29.74,North,355,0.0,1.0,92,0.12,,,0.57,,2013-06-02 06:52:00,
2013-06-02 03:01:00,68.0,66.0,29.73,North,355,0.0,2.0,92,0.12,,,0.57,,2013-06-02 07:01:00,
2013-06-02 03:11:00,68.0,66.0,29.73,North,355,0.0,2.0,92,0.12,,,0.57,,2013-06-02 07:11:00,
2013-06-02 03:22:00,68.0,66.0,29.73,NNE,20,0.0,7.0,93,0.01,,,0.58,,2013-06-02 07:22:00,
2013-06-02 03:32:00,68.0,66.0,29.74,NNE,19,0.0,4.0,93,0.01,,,0.58,,2013-06-02 07:32:00,
2013-06-02 03:42:00,68.0,66.0,29.72,NNE,20,0.0,0.0,93,0.01,,,0.58,,2013-06-02 07:42:00,
2013-06-02 03:52:00,68.0,66.0,29.72,NNE,20,0.0,0.0,93,0.01,,,0.58,,2013-06-02 07:52:00,
2013-06-02 04:02:00,68.0,66.0,29.70,NNE,20,0.0,1.0,93,0.01,,,0.58,,2013-06-02 08:02:00,
2013-06-02 04:12:00,68.0,66.0,29.70,NNE,20,0.0,1.0,93,0.01,,,0.58,,2013-06-02 08:12:00,
2013-06-02 04:21:00,68.0,66.0,29.71,SSE,157,0.0,4.0,93,0.00,,,0.58,,2013-06-02 08:21:00,
2013-06-02 04:32:00,68.0,66.0,29.73,North,9,0.0,7.0,93,0.00,,,0.58,,2013-06-02 08:32:00,
2013-06-02 04:42:00,68.0,66.0,29.73,North,9,0.0,7.0,93,0.00,,,0.58,,2013-06-02 08:42:00,
2013-06-02 04:52:00,68.0,66.0,29.71,North,9,0.0,1.0,93,0.03,,,0.61,,2013-06-02 08:52:00,
2013-06-02 05:01:00,68.0,66.0,29.71,North,9,0.0,4.0,93,0.03,,,0.61,,2013-06-02 09:01:00,
2013-06-02 05:11:00,68.0,66.0,29.71,North,9,0.0,4.0,93,0.03,,,0.61,,2013-06-02 09:11:00,
2013-06-02 05:21:00,68.0,66.0,29.72,North,9,4.0,5.0,93,0.03,,,0.61,,2013-06-02 09:21:00,
2013-06-02 05:33:00,68.0,66.0,29.74,NNW,330,6.0,25.0,93,0.15,,,0.73,,2013-06-02 09:33:00,
2013-06-02 05:42:00,68.0,66.0,29.74,NNW,330,6.0,25.0,93,0.15,,,0.73,,2013-06-02 09:42:00,
2013-06-02 05:53:00,66.0,64.0,29.74,NNE,15,4.0,11.0,92,0.17,,,0.78,,2013-06-02 09:53:00,
2013-06-02 06:02:00,66.0,64.0,29.74,NNW,340,2.0,11.0,93,0.18,,,0.79,,2013-06-02 10:02:00,
2013-06-02 06:12:00,66.0,64.0,29.74,NNW,340,2.0,11.0,93,0.18,,,0.79,,2013-06-02 10:12:00,
2013-06-02 06:22:00,66.0,64.0,29.73,NNW,327,2.0,7.0,93,0.20,,,0.81,,2013-06-02 10:22:00,
2013-06-02 06:32:00,66.0,64.0,29.73,NW,320,3.0,6.0,93,0.09,,,0.81,,2013-06-02 10:32:00,
2013-06-02 06:42:00,66.0,64.0,29.73,NW,320,3.0,6.0,93,0.09,,,0.81,,2013-06-02 10:42:00,
2013-06-02 06:52:00,66.0,64.0,29.73,NW,321,3.0,9.0,93,0.03,,,0.81,,2013-06-02 10:52:00,
2013-06-02 07:02:00,66.0,64.0,29.74,NNW,337,2.0,10.0,93,0.02,,,0.81,,2013-06-02 11:02:00,
2013-06-02 07:12:00,66.0,64.0,29.74,NNW,337,2.0,10.0,93,0.02,,,0.81,,2013-06-02 11:12:00,
2013-06-02 07:22:00,66.0,64.0,29.73,NW,318,2.0,9.0,92,0.01,,,0.82,,2013-06-02 11:22:00,
2013-06-02 07:32:00,66.0,64.0,29.73,NNW,337,5.0,12.0,92,0.01,,,0.82,,2013-06-02 11:32:00,
2013-06-02 07:42:00,66.0,64.0,29.73,NNW,337,5.0,12.0,92,0.01,,,0.82,,2013-06-02 11:42:00,
2013-06-02 07:52:00,67.0,65.0,29.72,NNW,329,2.0,10.0,92,0.01,,,0.82,,2013-06-02 11:52:00,
2013-06-02 08:01:00,67.0,64.0,29.73,NNW,330,1.0,10.0,91,0.01,,,0.82,,2013-06-02 12:01:00,
2013-06-02 08:11:00,67.0,64.0,29.73,NNW,330,1.0,10.0,91,0.01,,,0.82,,2013-06-02 12:11:00,
2013-06-02 08:22:00,67.0,64.0,29.72,NW,317,5.0,14.0,91,0.00,,,0.82,,2013-06-02 12:22:00,
2013-06-02 08:32:00,67.0,64.0,29.72,NNW,336,3.0,10.0,91,0.00,,,0.82,,2013-06-02 12:32:00,
2013-06-02 08:42:00,67.0,64.0,29.72,NNW,336,3.0,10.0,91,0.00,,,0.82,,2013-06-02 12:42:00,
2013-06-02 08:52:00,68.0,65.0,29.73,WNW,301,3.0,9.0,90,0.00,,,0.82,,2013-06-02 12:52:00,
2013-06-02 09:01:00,68.0,65.0,29.72,NW,325,2.0,11.0,90,0.00,,,0.82,,2013-06-02 13:01:00,
2013-06-02 09:12:00,68.0,65.0,29.72,NW,325,2.0,11.0,90,0.00,,,0.82,,2013-06-02 13:12:00,
2013-06-02 09:21:00,68.0,64.0,29.72,NNW,329,3.0,9.0,88,0.00,,,0.82,,2013-06-02 13:21:00,
2013-06-02 09:32:00,68.0,64.0,29.72,West,280,1.0,8.0,87,0.00,,,0.82,,2013-06-02 13:32:00,
2013-06-02 09:42:00,68.0,64.0,29.72,West,280,1.0,8.0,87,0.00,,,0.82,,2013-06-02 13:42:00,
2013-06-02 09:52:00,69.0,65.0,29.72,NNW,330,4.0,11.0,86,0.00,,,0.82,,2013-06-02 13:52:00,
2013-06-02 10:02:00,69.0,65.0,29.72,NW,321,4.0,9.0,86,0.00,,,0.82,,2013-06-02 14:02:00,
2013-06-02 10:11:00,69.0,65.0,29.72,NW,321,4.0,9.0,86,0.00,,,0.82,,2013-06-02 14:11:00,
2013-06-02 10:21:00,69.0,64.0,29.73,NW,322,4.0,10.0,85,0.00,,,0.82,,2013-06-02 14:21:00,
2013-06-02 10:32:00,70.0,65.0,29.72,NNW,336,2.0,13.0,85,0.00,,,0.82,,2013-06-02 14:32:00,
2013-06-02 10:42:00,70.0,65.0,29.72,NNW,336,2.0,13.0,85,0.00,,,0.82,,2013-06-02 14:42:00,
2013-06-02 10:52:00,70.0,65.0,29.73,NW,319,4.0,11.0,83,0.00,,,0.82,,2013-06-02 14:52:00,
2013-06-02 11:01:00,71.0,66.0,29.72,NNW,331,4.0,11.0,83,0.00,,,0.82,,2013-06-02 15:01:00,
2013-06-02 11:11:00,71.0,66.0,29.72,NNW,331,4.0,11.0,83,0.00,,,0.82,,2013-06-02 15:11:00,
2013-06-02 11:22:00,72.0,66.0,29.73,NW,313,3.0,12.0,82,0.00,,,0.82,,2013-06-02 15:22:00,
2013-06-02 11:33:00,72.0,66.0,29.72,NNW,336,9.0,16.0,81,0.00,,,0.82,,2013-06-02 15:33:00,
2013-06-02 11:43:00,73.0,66.0,29.72,West,279,3.0,15.0,80,0.00,,,0.82,,2013-06-02 15:43:00,
2013-06-02 11:53:00,73.0,66.0,29.72,West,279,3.0,15.0,80,0.00,,,0.82,,2013-06-02 15:53:00,
2013-06-02 12:03:00,74.0,67.0,29.72,NNW,327,5.0,12.0,80,0.00,,,0.82,,2013-06-02 16:03:00,
2013-06-02 12:13:00,74.0,67.0,29.72,NNW,327,5.0,12.0,80,0.00,,,0.82,,2013-06-02 16:13:00,
2013-06-02 12:23:00,74.0,67.0,29.73,NW,318,7.0,11.0,78,0.00,,,0.82,,2013-06-02 16:23:00,
2013-06-02 12:33:00,74.0,66.0,29.72,NNW,340,10.0,13.0,75,0.00,,,0.82,,2013-06-02 16:33:00,
2013-06-02 12:42:00,74.0,66.0,29.72,NNW,340,10.0,13.0,75,0.00,,,0.82,,2013-06-02 16:42:00,
2013-06-02 12:53:00,74.0,65.0,29.74,NNE,15,5.0,13.0,74,0.00,,,0.82,,2013-06-02 16:53:00,
2013-06-02 13:02:00,72.0,64.0,29.73,NE,37,5.0,14.0,76,0.00,,,0.82,,2013-06-02 17:02:00,
2013-06-02 13:12:00,72.0,64.0,29.73,NE,37,5.0,14.0,76,0.00,,,0.82,,2013-06-02 17:12:00,
2013-06-02 13:23:00,75.0,67.0,29.72,NE,34,2.0,10.0,75,0.00,,,0.82,,2013-06-02 17:23:00,
2013-06-02 13:32:00,72.0,65.0,29.74,NNE,19,9.0,17.0,78,0.01,,,0.83,,2013-06-02 17:32:00,
2013-06-02 13:42:00,71.0,66.0,29.73,North,350,4.0,12.0,84,0.01,,,0.83,,2013-06-02 17:42:00,
2013-06-02 13:52:00,71.0,66.0,29.73,North,350,4.0,12.0,84,0.01,,,0.83,,2013-06-02 17:52:00,
2013-06-02 14:02:00,71.0,65.0,29.73,NNW,331,5.0,18.0,80,0.02,,,0.84,,2013-06-02 18:02:00,
2013-06-02 14:11:00,71.0,65.0,29.73,NNW,331,5.0,18.0,80,0.02,,,0.84,,2013-06-02 18:11:00,
2013-06-02 14:21:00,74.0,66.0,29.73,North,9,6.0,12.0,75,0.02,,,0.84,,2013-06-02 18:21:00,
2013-06-02 14:32:00,75.0,65.0,29.73,North,355,6.0,13.0,72,0.01,,,0.84,,2013-06-02 18:32:00,
2013-06-02 14:42:00,75.0,64.0,29.73,NNW,348,9.0,16.0,68,0.01,,,0.84,,2013-06-02 18:42:00,
2013-06-02 14:52:00,75.0,64.0,29.73,NNW,348,9.0,16.0,68,0.01,,,0.84,,2013-06-02 18:52:00,
2013-06-02 15:01:00,76.0,64.0,29.73,North,10,6.0,15.0,67,0.00,,,0.84,,2013-06-02 19:01:00,
2013-06-02 15:11:00,76.0,64.0,29.73,North,10,6.0,15.0,67,0.00,,,0.84,,2013-06-02 19:11:00,
2013-06-02 15:21:00,76.0,63.0,29.74,NNE,21,12.0,21.0,64,0.00,,,0.84,,2013-06-02 19:21:00,
2013-06-02 15:32:00,76.0,63.0,29.73,NNE,28,11.0,26.0,65,0.00,,,0.84,,2013-06-02 19:32:00,
2013-06-02 15:42:00,76.0,63.0,29.73,NNE,28,11.0,26.0,65,0.00,,,0.84,,2013-06-02 19:42:00,
2013-06-02 15:52:00,76.0,62.0,29.74,North,5,10.0,15.0,61,0.00,,,0.84,,2013-06-02 19:52:00,
2013-06-02 16:02:00,76.0,62.0,29.74,NNW,346,9.0,19.0,61,0.00,,,0.84,,2013-06-02 20:02:00,
2013-06-02 16:11:00,76.0,62.0,29.74,NNW,346,9.0,19.0,61,0.00,,,0.84,,2013-06-02 20:11:00,
2013-06-02 16:22:00,76.0,62.0,29.73,NNE,13,5.0,27.0,61,0.00,,,0.84,,2013-06-02 20:22:00,
2013-06-02 16:32:00,76.0,61.0,29.73,North,349,6.0,22.0,59,0.00,,,0.84,,2013-06-02 20:32:00,
2013-06-02 16:42:00,76.0,61.0,29.73,North,349,6.0,22.0,59,0.00,,,0.84,,2013-06-02 20:42:00,
2013-06-02 16:52:00,75.0,60.0,29.74,NNW,346,9.0,23.0,60,0.00,,,0.84,,2013-06-02 20:52:00,
2013-06-02 17:01:00,75.0,60.0,29.74,North,5,11.0,23.0,60,0.00,,,0.84,,2013-06-02 21:01:00,
2013-06-02 17:12:00,75.0,60.0,29.74,North,5,11.0,23.0,60,0.00,,,0.84,,2013-06-02 21:12:00,
2013-06-02 17:21:00,75.0,61.0,29.74,NNE,17,6.0,24.0,61,0.00,,,0.79,,2013-06-02 21:21:00,
2013-06-02 17:33:00,74.0,61.0,29.74,NE,38,5.0,15.0,63,0.00,,,0.79,,2013-06-02 21:33:00,
2013-06-02 17:42:00,74.0,61.0,29.74,NE,38,5.0,15.0,63,0.00,,,0.79,,2013-06-02 21:42:00,
2013-06-02 17:53:00,73.0,61.0,29.75,NNE,14,9.0,17.0,65,0.00,,,0.79,,2013-06-02 21:53:00,
2013-06-02 18:03:00,73.0,60.0,29.74,NNE,12,6.0,17.0,64,0.00,,,0.79,,2013-06-02 22:03:00,
2013-06-02 18:12:00,73.0,60.0,29.74,NNE,12,6.0,17.0,64,0.00,,,0.79,,2013-06-02 22:12:00,
2013-06-02 18:23:00,73.0,60.0,29.75,NNW,336,11.0,17.0,63,0.00,,,0.79,,2013-06-02 22:23:00,
2013-06-02 18:33:00,72.0,60.0,29.76,NNW,333,10.0,18.0,65,0.00,,,0.79,,2013-06-02 22:33:00,
2013-06-02 18:42:00,72.0,60.0,29.76,NNW,333,10.0,18.0,65,0.00,,,0.79,,2013-06-02 22:42:00,
2013-06-02 18:53:00,72.0,59.0,29.75,NW,324,11.0,23.0,64,0.00,,,0.79,,2013-06-02 22:53:00,
2013-06-02 19:02:00,72.0,60.0,29.76,NNE,29,12.0,22.0,65,0.00,,,0.79,,2013-06-02 23:02:00,
2013-06-02 19:12:00,72.0,60.0,29.76,NNE,29,12.0,22.0,65,0.00,,,0.79,,2013-06-02 23:12:00,
2013-06-02 19:22:00,72.0,60.0,29.78,NNE,19,11.0,22.0,65,0.00,,,0.79,,2013-06-02 23:22:00,
2013-06-02 19:32:00,71.0,59.0,29.78,NNE,22,8.0,16.0,66,0.00,,,0.79,,2013-06-02 23:32:00,
2013-06-02 19:42:00,71.0,59.0,29.78,NNE,22,8.0,16.0,66,0.00,,,0.79,,2013-06-02 23:42:00,
2013-06-02 19:52:00,71.0,59.0,29.78,NNW,344,5.0,17.0,67,0.00,,,0.79,,2013-06-02 23:52:00,
2013-06-02 20:01:00,71.0,60.0,29.79,NNE,26,6.0,19.0,68,0.00,,,0.79,,2013-06-03 00:01:00,
2013-06-02 20:12:00,70.0,59.0,29.79,NNW,340,9.0,14.0,69,0.00,,,0.43,,2013-06-03 00:12:00,
2013-06-02 20:22:00,70.0,59.0,29.79,NNW,340,9.0,14.0,69,0.00,,,0.43,,2013-06-03 00:22:00,
2013-06-02 20:32:00,70.0,59.0,29.79,North,350,5.0,15.0,69,0.00,,,0.43,,2013-06-03 00:32:00,
2013-06-02 20:42:00,69.0,59.0,29.79,NNE,28,8.0,12.0,70,0.00,,,0.43,,2013-06-03 00:42:00,
2013-06-02 20:52:00,69.0,59.0,29.79,NNE,28,8.0,12.0,70,0.00,,,0.43,,2013-06-03 00:52:00,
2013-06-02 21:01:00,69.0,59.0,29.80,NNW,343,4.0,11.0,71,0.00,,,0.43,,2013-06-03 01:01:00,
2013-06-02 21:11:00,69.0,59.0,29.80,NNW,343,4.0,11.0,71,0.00,,,0.43,,2013-06-03 01:11:00,
2013-06-02 21:21:00,68.0,59.0,29.81,NNW,344,1.0,7.0,72,0.00,,,0.39,,2013-06-03 01:21:00,
2013-06-02 21:32:00,68.0,59.0,29.81,NNE,31,4.0,9.0,72,0.00,,,0.39,,2013-06-03 01:32:00,
2013-06-02 21:42:00,68.0,59.0,29.81,NNE,31,4.0,9.0,72,0.00,,,0.39,,2013-06-03 01:42:00,
2013-06-02 21:52:00,68.0,59.0,29.82,North,355,2.0,5.0,73,0.00,,,0.39,,2013-06-03 01:52:00,
2013-06-02 22:02:00,68.0,59.0,29.82,NNW,340,3.0,9.0,74,0.00,,,0.39,,2013-06-03 02:02:00,
2013-06-02 22:12:00,68.0,59.0,29.82,NNW,340,3.0,9.0,74,0.00,,,0.39,,2013-06-03 02:12:00,
2013-06-02 22:22:00,67.0,59.0,29.83,NNE,22,5.0,12.0,75,0.00,,,0.39,,2013-06-03 02:22:00,
2013-06-02 22:32:00,66.0,57.0,29.84,NE,42,7.0,14.0,74,0.00,,,0.39,,2013-06-03 02:32:00,
2013-06-02 22:42:00,66.0,57.0,29.84,NE,42,7.0,14.0,74,0.00,,,0.39,,2013-06-03 02:42:00,
2013-06-02 22:52:00,64.0,56.0,29.84,NNE,28,3.0,12.0,75,0.00,,,0.39,,2013-06-03 02:52:00,
2013-06-02 23:02:00,63.0,56.0,29.85,NE,46,4.0,13.0,77,0.00,,,0.39,,2013-06-03 03:02:00,
2013-06-02 23:12:00,63.0,56.0,29.85,NE,46,4.0,13.0,77,0.00,,,0.39,,2013-06-03 03:12:00,
2013-06-02 23:22:00,61.0,54.0,29.86,NNE,28,3.0,10.0,79,0.00,,,0.39,,2013-06-03 03:22:00,
2013-06-02 23:33:00,60.0,54.0,29.86,NNE,33,3.0,10.0,80,0.00,,,0.39,,2013-06-03 03:33:00,
2013-06-02 23:43:00,60.0,54.0,29.86,NNE,33,3.0,10.0,80,0.00,,,0.39,,2013-06-03 03:43:00,
2013-06-02 23:53:00,59.0,53.0,29.87,NNE,33,1.0,9.0,81,0.00,,,0.39,,2013-06-03 03:53:00,